Theta_e
332 338 348 347 348 347 345 344 342 342 343 344 344 344 345 347 346 345 345 340 339 339 339 340 340 341 340 339 338 340 341 341 341 342 342 343 344 344 343 343 341 338 344
335 340 345 348 349 346 344 343 344 343 341 342 343 344 344 346 345 344 342 341 338 338 338 339 339 338 338 338 337 337 337 337 337 338 339 340 341 341 341 340 341 337 340
336 342 343 347 350 348 346 345 344 342 341 341 342 344 343 346 345 343 340 339 337 337 337 338 338 338 339 338 338 336 335 335 335 336 335 329 331 337 338 337 339 337 337
336 342 343 345 349 347 346 345 344 341 340 340 340 342 342 345 344 342 339 337 337 336 337 338 338 338 339 340 336 335 334 333 333 332 325 326 331 336 337 337 338 336 337
336 342 342 346 348 347 346 345 343 342 339 339 339 341 341 345 343 340 338 336 335 335 337 338 338 338 338 338 336 335 334 334 333 329 328 327 333 336 338 338 337 337 338
335 340 342 347 348 346 345 343 340 339 338 337 338 339 341 342 340 338 337 335 334 335 337 337 337 338 338 337 336 336 336 335 332 328 328 333 330 336 336 335 333 333 334
335 339 342 345 347 346 345 342 341 340 337 336 337 338 339 340 338 336 335 334 334 334 336 336 335 337 338 337 336 334 332 331 326 324 324 327 329 335 334 333 333 333 331
337 340 342 339 342 344 344 343 342 341 338 337 336 337 337 338 336 335 333 332 333 333 335 334 335 335 335 333 331 330 328 326 320 319 322 324 332 333 333 332 330 329 328
339 340 341 341 340 338 340 340 341 341 338 337 337 337 337 337 335 333 332 331 331 332 333 333 334 334 333 332 331 330 328 326 321 323 325 327 332 333 331 328 327 326 325
339 340 339 339 340 340 338 334 335 337 336 335 335 333 332 332 331 330 329 331 331 331 332 332 332 332 332 330 328 325 323 323 320 326 326 326 329 329 327 325 324 322 322
336 338 338 337 338 338 337 333 331 333 332 330 328 326 323 324 322 320 324 330 330 330 330 330 330 328 326 324 323 321 318 314 321 325 325 328 326 326 324 323 321 321 320
331 333 336 337 337 336 338 333 333 333 330 325 323 320 320 319 319 320 320 326 328 328 329 327 326 322 317 312 313 315 311 314 317 321 324 326 325 323 322 321 320 319 319
330 332 334 336 337 336 336 334 333 333 328 324 320 319 318 318 317 316 316 318 319 320 319 316 313 312 311 311 310 309 310 311 312 314 323 325 323 321 321 319 319 319 318
325 330 333 335 335 336 337 334 335 333 329 324 320 321 318 316 314 313 313 313 314 314 313 311 309 309 309 309 308 308 306 305 306 307 314 321 322 323 320 319 318 318 317
325 328 332 334 335 337 337 336 335 334 330 326 321 324 319 316 314 312 311 311 311 310 310 309 307 306 306 305 305 305 304 303 303 304 308 316 320 321 320 318 318 316 316
326 328 331 332 333 336 337 337 336 335 333 327 323 324 320 318 315 313 311 310 309 308 309 307 305 303 303 303 303 303 302 300 300 301 302 308 318 320 318 318 317 316 315
326 328 329 331 333 333 335 337 336 335 334 331 326 326 324 320 315 314 312 311 309 310 309 307 304 301 299 300 300 301 300 298 298 298 298 300 302 311 317 315 315 315 314
321 325 328 331 331 332 333 335 335 336 334 333 330 328 327 323 318 316 313 313 313 310 308 305 302 300 298 298 296 297 296 295 295 296 297 297 297 299 306 314 313 313 313
320 323 326 329 330 330 331 333 333 334 334 334 333 330 329 326 321 318 316 315 314 310 308 305 300 299 296 293 293 292 291 293 292 294 295 296 296 295 295 304 307 312 311
317 320 325 329 330 330 330 330 329 332 332 333 333 333 331 328 324 320 318 316 314 309 306 304 300 296 295 293 292 289 289 289 289 291 292 294 293 292 292 293 294 298 310
311 314 321 326 329 329 328 326 326 326 330 328 331 332 332 329 326 322 319 317 314 309 306 303 298 294 292 292 289 288 288 288 286 288 288 289 290 289 290 290 291 292 296
306 313 319 323 327 328 329 329 329 328 326 328 328 327 331 331 328 325 321 317 315 310 305 301 299 295 292 292 287 288 284 286 285 287 286 286 286 286 287 288 288 290 290
299 308 315 322 325 328 329 326 315 314 312 315 316 323 326 329 329 326 323 319 316 312 305 302 298 297 292 291 291 291 284 285 284 284 285 285 283 283 284 285 286 288 288
299 302 311 318 322 326 327 324 323 323 321 322 324 320 318 321 328 326 324 320 316 313 308 303 301 299 297 291 291 293 291 288 285 280 284 284 284 283 282 283 283 286 286
297 299 305 311 317 321 323 323 322 322 322 312 309 311 309 312 316 324 323 319 316 314 311 305 301 300 298 296 294 294 292 288 287 285 281 282 281 283 283 284 284 285 286
298 297 302 309 312 315 319 318 318 319 312 305 304 306 306 307 313 313 316 319 317 315 312 307 304 301 300 300 296 298 295 293 288 285 282 282 282 283 284 284 282 284 285
Wind_Speed
5 6 9 11 11 12 12 14 14 13 14 14 14 16 15 17 18 19 19 20 18 17 18 18 19 18 20 22 21 21 21 22 21 21 21 21 22 23 24 21 19 17 25
10 7 10 12 11 12 13 14 12 12 14 13 14 15 15 17 19 19 18 18 18 17 18 19 20 19 17 21 22 22 21 20 19 17 18 20 22 22 23 22 21 20 23
11 7 6 10 12 12 12 13 12 12 14 13 13 14 14 16 19 19 19 18 18 17 17 19 19 19 17 19 20 20 20 19 17 15 14 7 12 19 21 19 19 21 21
10 8 7 10 13 13 12 12 11 12 13 13 13 14 14 14 18 18 18 18 17 16 17 19 18 17 19 20 20 20 20 17 15 12 5 7 12 20 20 21 21 21 22
10 8 9 12 14 13 13 12 11 11 12 13 13 14 14 14 17 17 17 17 15 16 17 17 15 15 19 19 19 19 17 13 11 6 6 6 9 19 23 22 23 24 22
11 9 11 14 15 15 14 13 13 13 13 13 13 13 14 15 16 16 16 16 14 15 16 16 15 14 19 18 19 19 17 15 11 7 7 11 11 20 21 22 21 22 22
10 9 10 14 15 15 15 15 13 13 13 13 13 13 13 15 15 15 15 15 14 14 15 16 14 16 17 17 17 17 15 13 8 8 6 8 12 19 20 21 21 22 22
11 10 10 12 13 14 15 14 13 13 13 13 13 13 13 14 14 15 15 15 15 14 15 15 15 15 15 17 17 16 15 12 8 7 6 6 16 18 19 20 20 21 21
12 11 9 9 10 12 12 12 12 13 13 13 13 13 12 12 13 14 14 15 15 15 15 15 17 17 18 18 18 17 15 12 6 4 6 7 17 20 20 20 20 19 20
11 12 11 9 9 8 8 11 11 12 11 11 10 10 9 11 12 11 10 13 15 15 16 15 16 17 18 19 18 16 14 13 6 7 7 10 18 20 19 18 19 18 19
10 12 11 10 9 8 7 8 11 12 11 11 10 10 7 4 6 8 8 12 14 14 15 15 16 17 17 17 17 16 12 4 6 4 5 19 18 17 18 18 18 18 18
11 9 12 12 10 8 7 6 6 6 5 5 5 6 4 5 5 6 7 11 12 12 14 16 15 14 9 5 5 10 4 5 5 4 6 17 18 15 16 17 17 17 17
11 10 11 12 12 11 7 6 4 4 4 4 6 5 5 4 4 4 3 3 4 6 3 6 5 4 6 5 5 5 5 5 4 3 8 16 16 13 15 15 16 16 16
9 12 13 13 12 12 8 8 9 7 5 5 5 6 5 3 4 4 3 4 4 3 5 4 3 5 6 6 6 7 6 4 3 2 3 13 12 15 12 14 14 15 15
11 11 14 14 14 12 11 9 9 9 8 8 7 7 6 5 5 4 3 3 4 4 4 4 5 5 5 6 5 7 5 5 4 3 3 8 12 13 14 11 13 13 14
13 14 13 13 13 14 12 11 9 9 10 8 8 8 9 7 7 6 4 4 3 3 3 4 6 5 4 5 6 6 5 4 5 5 4 5 8 11 11 12 12 12 12
13 12 14 14 13 13 13 11 9 9 10 10 9 12 12 10 10 9 7 6 5 4 6 4 4 5 5 4 6 5 5 5 5 5 4 5 4 9 10 11 11 11 11
9 12 13 12 13 13 13 11 9 10 10 10 10 10 13 13 13 11 9 8 7 6 5 5 4 4 5 6 5 3 3 4 5 5 4 4 4 3 6 8 10 11 11
13 13 13 14 14 14 12 9 10 11 10 10 10 10 14 14 15 12 10 9 10 7 7 7 5 6 5 4 5 3 3 3 3 3 4 5 5 4 3 6 7 9 10
13 14 15 13 16 15 10 7 5 8 9 8 11 12 15 13 15 12 10 10 10 8 7 7 8 3 4 7 6 4 3 2 1 1 3 2 4 5 4 4 3 3 8
8 9 14 15 16 11 9 8 8 10 9 8 9 14 15 14 15 14 10 11 11 12 12 11 7 9 4 5 5 2 2 0 2 3 3 3 4 4 4 4 2 2 1
17 16 14 16 16 15 12 11 9 9 6 7 8 9 14 15 16 14 14 12 14 10 11 11 12 6 3 9 4 3 2 2 4 5 4 4 6 3 5 5 5 4 3
10 14 15 17 17 16 16 6 3 4 2 3 4 8 10 14 15 15 14 13 14 12 12 15 13 16 9 10 9 5 4 7 3 3 7 6 6 5 5 5 6 5 5
13 9 10 11 13 14 13 11 15 12 12 9 9 5 6 8 13 15 14 13 14 12 13 13 13 14 11 12 5 9 2 4 5 3 3 7 6 9 7 5 6 6 6
6 7 7 6 7 9 13 13 12 12 8 2 3 6 6 6 5 9 13 14 13 11 13 14 15 15 13 13 12 7 3 3 3 3 4 5 5 8 8 9 8 8 9
6 3 4 7 7 7 10 10 12 13 7 5 4 5 4 4 7 6 7 12 12 12 14 15 17 19 17 14 13 12 9 9 7 5 3 4 9 8 10 8 8 8 8
Wind_Direction
199 189 156 132 110 112 109 98 94 100 95 96 95 89 85 92 99 92 89 87 86 84 84 87 87 87 86 84 80 76 75 73 74 73 71 72 75 75 71 66 67 68 69
150 163 174 129 131 119 111 107 105 102 99 100 99 92 89 96 99 98 95 92 90 88 89 94 92 89 92 93 91 88 86 83 76 74 75 77 77 78 75 72 71 70 71
151 151 165 137 123 121 117 108 108 107 106 104 102 101 97 101 102 98 96 93 91 93 98 99 94 83 96 104 96 95 91 86 82 73 75 78 81 78 81 81 80 82 80
145 150 144 138 129 128 122 119 119 116 114 112 109 108 99 100 105 101 98 96 96 99 104 103 91 84 91 102 99 98 97 92 83 80 62 74 87 88 87 86 84 83 85
147 151 145 139 134 133 121 117 117 115 117 115 113 112 104 100 106 104 102 101 102 105 107 99 89 99 101 102 103 100 96 86 70 66 66 84 89 85 82 78 75 72 70
151 149 148 145 139 136 134 133 130 128 122 116 117 115 111 100 106 106 104 104 106 107 109 100 88 94 108 107 105 99 94 85 68 61 63 81 92 91 87 82 77 72 73
153 149 152 147 147 146 143 142 140 133 127 125 124 122 119 114 112 111 112 112 112 111 112 97 91 95 105 106 100 96 88 76 79 65 57 76 84 87 88 85 83 80 79
146 154 155 152 150 152 146 148 147 139 136 133 132 130 130 125 124 119 120 119 116 112 109 98 94 100 101 98 91 82 67 63 57 57 61 74 89 92 91 86 84 82 82
147 149 152 158 155 150 152 151 150 143 141 142 139 136 132 127 127 124 124 124 119 118 112 101 96 98 101 95 87 75 64 63 61 63 73 81 89 89 85 83 83 86 86
155 155 156 158 158 158 160 154 146 146 146 140 131 125 121 120 120 118 120 124 124 125 116 108 103 99 95 91 83 70 59 51 47 65 84 87 87 88 89 93 93 88 88
163 162 161 160 164 160 157 162 153 148 146 136 129 128 111 116 118 116 128 128 129 129 119 117 109 101 91 81 76 70 62 42 55 66 89 100 97 98 96 90 94 92 92
170 172 169 164 166 160 165 156 149 148 145 138 140 142 128 130 130 129 127 129 133 130 133 121 111 100 86 75 68 66 57 56 58 70 102 101 105 106 102 101 97 96 94
177 170 176 172 166 167 165 159 154 150 142 145 154 150 144 131 124 121 121 122 127 137 112 94 91 84 94 93 79 76 70 58 56 30 107 104 111 114 105 105 103 101 100
181 179 178 178 171 176 170 172 175 169 162 165 173 158 146 138 133 136 133 142 143 147 128 114 104 108 96 93 101 95 74 63 58 34 46 108 116 113 121 115 111 108 105
188 189 184 178 177 179 177 179 178 178 175 176 175 173 158 153 153 137 147 153 159 150 143 131 121 115 107 100 87 100 92 87 90 69 62 89 117 131 123 121 119 116 113
193 194 187 183 180 176 180 178 180 181 178 176 178 182 172 168 164 160 161 168 171 158 145 138 139 128 116 120 111 109 106 90 73 59 56 67 75 136 133 138 130 125 120
205 191 190 186 188 180 183 177 177 183 182 183 186 186 183 174 176 171 170 177 177 163 140 124 128 112 110 104 110 114 117 105 85 72 61 72 49 37 153 149 142 136 131
202 194 196 193 191 187 188 182 182 185 187 189 189 190 187 183 179 174 177 186 176 164 150 143 151 131 130 137 128 106 103 93 101 96 79 90 76 55 39 139 149 147 147
206 204 203 199 194 194 193 184 180 181 187 191 189 191 191 189 184 181 182 182 173 169 169 157 152 152 141 108 115 90 87 114 132 124 117 109 109 103 85 60 41 159 166
211 205 204 200 203 197 189 183 183 180 190 192 195 198 191 192 188 186 184 177 170 170 167 165 158 126 142 140 125 95 75 61 75 182 156 140 138 130 121 106 55 3 171
215 200 202 195 202 189 191 188 195 201 192 196 200 199 196 194 190 188 186 178 180 178 181 169 142 143 138 135 105 68 87 307 226 232 206 189 199 179 150 141 140 92 115
215 208 203 201 196 195 198 205 208 202 203 203 195 193 200 196 192 191 185 186 186 179 175 171 167 161 130 181 145 96 164 279 242 219 218 208 210 205 191 183 172 161 145
216 210 203 200 196 197 198 175 84 69 58 169 190 198 204 198 195 192 194 187 185 186 184 180 179 174 173 197 193 152 147 221 131 188 221 215 202 201 215 201 195 190 175
234 220 210 204 194 196 184 183 196 204 208 217 215 199 178 201 200 196 193 189 188 189 189 192 186 188 173 193 192 241 292 142 184 203 232 214 210 210 203 211 199 194 189
254 226 215 189 185 185 187 191 197 212 215 154 151 175 181 195 211 202 189 181 189 193 196 190 188 197 197 183 209 185 162 234 114 134 186 211 212 219 213 200 201 199 193
358 308 200 182 191 183 189 193 197 209 191 163 175 196 192 191 206 205 197 190 193 198 197 195 196 200 198 208 197 212 200 187 184 174 168 195 216 216 209 204 206 198 202